Flag for Germany Weather past 2 weeks in Wiesbaden, Hesse, Germany

Now
55 °F

Overcast.


Feels Like: 54 °F
Forecast: 47 / 65 °F
Wind: 7 mph from West

Location: Wiesbaden Airport

Current Time: Aug 23, 2014 at 9:16:14 PM

Latest Report: Aug 23, 2014 at 8:58 PM


Visibility: N/A

Pressure: 30.00 "Hg

Humidity: 82%

Dew point: 50 °F

Location of WiesbadenLocation

Historic Weather in Wiesbaden — Graph

°F

Wiesbaden temperature yesterday

Maximum temperature yesterday: 68 °F (at 3:58 PM)
Minimum temperature yesterday: 45 °F (at 6:58 AM)
Average temperature yesterday: 57 °F

Past Weeks' High & Low Weather Summary

 TemperatureHumidityPressure
High77 °F (Aug 8, 7:58 PM)100% (Aug 10, 6:58 PM)30.12 "Hg (Aug 10, 6:58 PM)
Low45 °F (Aug 22, 6:58 AM)41% (Aug 12, 6:58 PM)29.66 "Hg (Aug 13, 3:58 PM)
Average61 °F76%29.91 "Hg
* Reported Aug 8 7:58 PM — Aug 23 7:58 PM, Wiesbaden, Weather by CustomWeather, © 2014

Note: Actual official high and low records may vary slightly from our data, if they occured in-between our weather recording intervals... More about our weather records

Advertising

Wiesbaden weather history for previous 24 hours

 ConditionsComfort  
Time TempWeatherWind HumidityBarometerVisibility
7:58 PM
Aug 23
55 °FOvercast.8 mph77%29.98 "HgN/A
7:03 PM55 °FOvercast.1 mph77%29.95 "HgN/A
6:58 PM55 °FLight rain. Overcast.5 mph77%29.96 "HgN/A
5:58 PM61 °FLight rain. Partly sunny.16 mph59%29.95 "HgN/A
4:58 PM64 °FBroken clouds.13 mph56%29.93 "HgN/A
3:58 PM64 °FOvercast.12 mph60%29.93 "HgN/A
2:58 PM63 °FOvercast.12 mph54%29.94 "HgN/A
1:58 PM64 °FOvercast.13 mph60%29.94 "HgN/A
12:59 PM63 °FLight rain. More clouds than sun.8 mph64%29.95 "HgN/A
12:58 PM63 °FMore clouds than sun.9 mph64%29.95 "HgN/A
11:58 AM63 °FScattered clouds.13 mph64%29.95 "HgN/A
10:58 AM61 °FPassing clouds.10 mph70%29.96 "HgN/A
9:58 AM59 °FPartly sunny.8 mph77%29.95 "HgN/A
8:58 AM57 °FBroken clouds.7 mph80%29.95 "HgN/A
7:58 AM56 °FPartly sunny.7 mph81%29.95 "HgN/A
6:58 AM55 °FMostly cloudy.2 mph84%29.94 "HgN/A
5:58 AM55 °FMostly cloudy.5 mph82%29.93 "HgN/A
4:58 AM55 °FMostly cloudy.7 mph82%29.93 "HgN/A
3:58 AM55 °FMostly cloudy.5 mph82%29.94 "HgN/A
2:58 AM54 °FPartly cloudy.5 mph83%29.93 "HgN/A
1:58 AM55 °FOvercast.1 mph83%29.94 "HgN/A
12:58 AM54 °FMostly cloudy.1 mph81%29.94 "HgN/A
11:58 PM
Aug 22
55 °FPassing clouds.No wind77%29.94 "HgN/A
10:58 PM57 °FPassing clouds.1 mph73%29.93 "HgN/A
9:58 PM60 °FPassing clouds.5 mph62%29.93 "HgN/A
Weather by CustomWeather, © 2014

See weather overviewHow to use our weather pages